"Pseudo-MPEC" for P11dsp7

Created 2021 Feb 23 17:07:22 UT using Find_Orb

Click here for an explanation of pseudo-MPECs

 
 Astrometry: 
     P11dsp7  C2021 02 16q@.taRiAstrometryenfKw2^redacted;Y%VB,QCiO)^+)(XUH@OF51
     P11dsp7  C2021 02 16/MrOA^rKVVC66T2vclick+Uf48$@B,RwTs=xlA6Fm;#J9m`mY\R5F51
     P11dsp7  C2021 02 16AMZ;hereIfmfortexplanation@8@X^;I+/dbYW/s$h/1#fR+FG.F51

Station data:
(F51) Pan-STARRS 1, Haleakala  (N20.707235 W156.255910)  US/Hawaii.
   Observers N. Primak, A. Schultz, S. Watters, J. Thiel, T. Goggia. Measurer
   PS1 Science Consortium. 1.8-m Ritchey-Chrétien + CCD.

Orbital elements:  P11dsp7
   Perihelion 2021 Mar 11.861953 +/- 37.5424 TT = 20:41:12 (JD 2459285.361953)
Epoch 2021 Feb 17.0 TT = JDT 2459262.5   Earth MOID: 0.3387   Ju: 0.6025
M 355.78857789 +/- 22.719746        Ma: 0.0630                AutoNEOCP
n   0.18421094 +/- 0.246481         Peri.  106.80324 +/- 107.02803
a   3.05909119 +/- 2.80517          Node    64.77483 +/- 57.055036
e   0.5781062 +/- 0.25119           Incl.    8.84965 +/- 7.2814579
P   5.35                   H 23.2   G  0.15   U 11.8  SR
q 1.29061159 +/- 0.272922    Q 4.82757079 +/- 49.3877
From 3 observations 2021 Feb. 16 (32.6 min); mean residual 0".09
Residuals in arcseconds: 
210216 F51  .04+  .08-    210216 F51  .08-  .16+    210216 F51  .02+  .09-    

Ephemerides (geocentric):
Date (UTC) HH   RA              Dec         delta   r     elong  mag " sig PA
---- -- -- --  -------------   -----------  ------ ------ -----  --- ---- ---
2021 02 23 17  12 16 34.278   +34 56 27.44  .36481 1.3039 144.5 22.8  51d  24
2021 02 23 18  12 16 38.445   +34 56 26.27  .36472 1.3038 144.5 22.8  51d  24
2021 02 23 19  12 16 42.608   +34 56 25.04  .36462 1.3038 144.5 22.8  51d  24
2021 02 23 20  12 16 46.767   +34 56 23.73  .36453 1.3037 144.5 22.8  51d  24
2021 02 23 21  12 16 50.922   +34 56 22.36  .36443 1.3036 144.5 22.8  52d  24
2021 02 23 22  12 16 55.074   +34 56 20.91  .36434 1.3036 144.5 22.8  52d  24
2021 02 23 23  12 16 59.221   +34 56 19.39  .36425 1.3035 144.5 22.8  52d  24
2021 02 24 00  12 17 03.364   +34 56 17.80  .36415 1.3034 144.5 22.8  52d  24
2021 02 24 01  12 17 07.504   +34 56 16.14  .36406 1.3034 144.5 22.8  52d  24
2021 02 24 02  12 17 11.640   +34 56 14.41  .36397 1.3033 144.5 22.8  52d  24
2021 02 24 03  12 17 15.771   +34 56 12.61  .36388 1.3032 144.6 22.8  52d  24
2021 02 24 04  12 17 19.899   +34 56 10.74  .36378 1.3032 144.6 22.8  53d  24
2021 02 24 05  12 17 24.023   +34 56 08.79  .36369 1.3031 144.6 22.8  53d  24
2021 02 24 06  12 17 28.143   +34 56 06.78  .36360 1.3030 144.6 22.8  53d  24
2021 02 24 07  12 17 32.259   +34 56 04.69  .36351 1.3030 144.6 22.8  53d  24
2021 02 24 08  12 17 36.371   +34 56 02.53  .36341 1.3029 144.6 22.8  53d  24
2021 02 24 09  12 17 40.479   +34 56 00.30  .36332 1.3028 144.6 22.8  53d  24
2021 02 24 10  12 17 44.583   +34 55 58.00  .36323 1.3028 144.6 22.8  53d  24
2021 02 24 11  12 17 48.683   +34 55 55.62  .36314 1.3027 144.6 22.8  54d  24
2021 02 24 12  12 17 52.779   +34 55 53.18  .36305 1.3026 144.6 22.8  54d  24
2021 02 24 13  12 17 56.871   +34 55 50.66  .36296 1.3026 144.6 22.8  54d  24
2021 02 24 14  12 18 00.959   +34 55 48.07  .36287 1.3025 144.6 22.8  54d  24
2021 02 24 15  12 18 05.043   +34 55 45.41  .36278 1.3024 144.6 22.8  54d  24
2021 02 24 16  12 18 09.123   +34 55 42.67  .36269 1.3024 144.6 22.8  54d  24
2021 02 24 17  12 18 13.199   +34 55 39.87  .36260 1.3023 144.6 22.8  54d  24
2021 02 24 18  12 18 17.272   +34 55 36.99  .36251 1.3023 144.6 22.8  54d  24
2021 02 24 19  12 18 21.340   +34 55 34.04  .36242 1.3022 144.6 22.8  55d  24
2021 02 24 20  12 18 25.404   +34 55 31.01  .36233 1.3021 144.6 22.8  55d  24
2021 02 24 21  12 18 29.464   +34 55 27.92  .36224 1.3021 144.6 22.8  55d  24
2021 02 24 22  12 18 33.520   +34 55 24.75  .36215 1.3020 144.6 22.8  55d  24
2021 02 24 23  12 18 37.573   +34 55 21.51  .36206 1.3019 144.6 22.8  55d  24
2021 02 25 00  12 18 41.621   +34 55 18.19  .36197 1.3019 144.6 22.8  55d  24
2021 02 25 01  12 18 45.665   +34 55 14.81  .36188 1.3018 144.6 22.8  55d  24
2021 02 25 02  12 18 49.705   +34 55 11.35  .36179 1.3018 144.6 22.8  55d  24
2021 02 25 03  12 18 53.741   +34 55 07.81  .36170 1.3017 144.6 22.8  55d  24
2021 02 25 04  12 18 57.773   +34 55 04.21  .36161 1.3016 144.6 22.8  55d  24
2021 02 25 05  12 19 01.801   +34 55 00.53  .36153 1.3016 144.6 22.8  56d  24
2021 02 25 06  12 19 05.825   +34 54 56.78  .36144 1.3015 144.6 22.8  56d  24
2021 02 25 07  12 19 09.845   +34 54 52.96  .36135 1.3014 144.6 22.8  56d  24
2021 02 25 08  12 19 13.861   +34 54 49.06  .36126 1.3014 144.6 22.8  56d  24
2021 02 25 09  12 19 17.873   +34 54 45.09  .36118 1.3013 144.6 22.8  56d  24
2021 02 25 10  12 19 21.880   +34 54 41.04  .36109 1.3013 144.6 22.8  56d  24
2021 02 25 11  12 19 25.884   +34 54 36.93  .36100 1.3012 144.6 22.8  56d  24
2021 02 25 12  12 19 29.884   +34 54 32.74  .36091 1.3011 144.6 22.8  56d  24
2021 02 25 13  12 19 33.879   +34 54 28.47  .36083 1.3011 144.6 22.8  56d  24
2021 02 25 14  12 19 37.871   +34 54 24.13  .36074 1.3010 144.6 22.8  56d  24
2021 02 25 15  12 19 41.858   +34 54 19.72  .36066 1.3010 144.7 22.8  56d  24
2021 02 25 16  12 19 45.842   +34 54 15.24  .36057 1.3009 144.7 22.8  56d  24